Weather History for Rockport, TX

Change the Weather History Date:

Thursday, October 20, 2011

  Actual Average Record
Temperature  
Mean Temperature 66 °F -  
Max Temperature 80 °F 80 °F 90 °F (1993)
Min Temperature 51 °F 63 °F 41 °F (1989)
Growing Degree Days 16 (Base 50)    
Moisture  
Dew Point 51 °F    
Average Humidity 55    
Maximum Humidity 75    
Minimum Humidity 39    
Precipitation  
Precipitation 0.00 in - - ()
Sea Level Pressure  
Sea Level Pressure 30.08 in    
Wind  
Wind Speed 8 mph (SE)    
Max Wind Speed 15 mph    
Max Gust Speed 23 mph    
Visibility 10 miles    
Events      
Averages and records for this station are not official NWS values.
T = Trace of Precipitation, MM = Missing Value Source: NWS Daily Summary

Daily Weather History Graph

Daily Weather History Graph

Search for Another Location

Airport:

Trip Planner

Search our weather history database for the weather conditions in past years. The results will help you decide how hot, cold, wet, or windy it might be!

Date:

Astronomy

Oct. 20, 2011 Rise Set
Actual Time 7:31 AM CDT 6:54 PM CDT
Civil Twilight 7:07 AM CDT 7:17 PM CDT
Nautical Twilight 6:40 AM CDT 7:45 PM CDT
Astronomical Twilight 6:12 AM CDT 8:12 PM CDT
Moon 12:53 AM CDT 2:31 PM CDT
Length of Visible Light 12h 10m
Length of Day
11h 22m
Last Quarter, 44% of the Moon is Illuminated
Oct 20
Last Quarter
Oct 26
New
Nov 2
First Quarter
Nov 10
Full
Nov 18
Last Quarter

Hourly Weather History & Observations

Time (CDT) Temp. Heat Index Dew Point Humidity Pressure Visibility Wind Dir Wind Speed Gust Speed Precip Events Conditions
12:53 AM 55.0 °F - 36.0 °F 49% 30.09 in 10.0 mi SW 5.8 mph - N/A   Clear
1:53 AM 52.0 °F - 39.0 °F 61% 30.09 in 10.0 mi SW 5.8 mph - N/A   Clear
2:53 AM 51.1 °F - 41.0 °F 68% 30.09 in 10.0 mi SW 4.6 mph - N/A   Clear
3:53 AM 54.0 °F - 44.1 °F 69% 30.09 in 10.0 mi North 15.0 mph 23.0 mph N/A   Clear
4:53 AM 54.0 °F - 41.0 °F 62% 30.09 in 10.0 mi NE 6.9 mph - N/A   Clear
6:53 AM 60.1 °F - 51.1 °F 72% 30.10 in 10.0 mi ENE 6.9 mph - N/A   Clear
7:53 AM 60.1 °F - 52.0 °F 75% 30.11 in 10.0 mi NE 9.2 mph - N/A   Clear
8:53 AM 66.9 °F - 53.1 °F 61% 30.13 in 10.0 mi ENE 6.9 mph - N/A   Clear
9:53 AM 72.0 °F - 50.0 °F 46% 30.15 in 10.0 mi ENE 11.5 mph - N/A   Clear
10:53 AM 75.0 °F - 54.0 °F 48% 30.14 in 10.0 mi East 10.4 mph - N/A   Clear
11:53 AM 75.9 °F - 53.1 °F 45% 30.13 in 10.0 mi East 8.1 mph - N/A   Clear
12:53 PM 79.0 °F - 52.0 °F 39% 30.11 in 10.0 mi ESE 9.2 mph - N/A   Clear
1:53 PM 80.1 °F 79.9 °F 53.1 °F 39% 30.08 in 10.0 mi ESE 9.2 mph - N/A   Clear
4:53 PM 79.0 °F - 53.1 °F 40% 30.02 in 10.0 mi SSE 11.5 mph - N/A   Clear
5:53 PM 77.0 °F - 51.1 °F 40% 30.02 in 10.0 mi SSE 12.7 mph 17.3 mph N/A   Clear
6:53 PM 73.9 °F - 54.0 °F 50% 30.03 in 10.0 mi SSE 6.9 mph - N/A   Clear
7:53 PM 73.9 °F - 55.0 °F 52% 30.03 in 10.0 mi SSE 9.2 mph - N/A   Clear
8:53 PM 75.0 °F - 57.0 °F 53% 30.04 in 10.0 mi SSE 9.2 mph 18.4 mph N/A   Clear
9:53 PM 75.0 °F - 57.0 °F 53% 30.05 in 10.0 mi SSE 9.2 mph - N/A   Clear
10:53 PM 75.0 °F - 60.1 °F 60% 30.06 in 10.0 mi SSE 8.1 mph 17.3 mph N/A   Clear
11:53 PM 73.9 °F - 61.0 °F 64% 30.06 in 10.0 mi SSE 8.1 mph - N/A   Clear